Location: Unspecified
(0.0000°N, 0.0000°E)
Time: 05:47:23
(UTC+00:00)

AAUSAT CUBESAT 2 - Pass Details

Date: 16 July 2020
Orbit: 574 x 589 km, 97.5° (Epoch: 13 August)

Event Time Altitude Azimuth Distance (km) Brightness Sun altitude
Rises 04:40:57 0° 50° (NE) 2,805 ? -19.8°
Reaches altitude 10° 04:45:04 10° 91° (E) 1,906 ? -18.8°
Maximum altitude 04:45:48 10° 102° (ESE) 1,880 ? -18.7°
Drops below altitude 10° 04:46:32 10° 112° (ESE) 1,907 ? -18.5°
Sets 04:50:39 0° 153° (SSE) 2,807 ? -17.5°
